Chatham, MA

6:01 AM EDT on March 29, 2017 (GMT -0400)
Chatham Municipal

Weather History for KCQX - November, 2012

Change the Weather History Date:

Tuesday, November 6, 2012

  Actual Average Record
Temperature  
Mean Temperature 38 °F -  
Max Temperature 44 °F 51 °F 64 °F (1999)
Min Temperature 32 °F 39 °F 30 °F (2011)
Degree Days  
Heating Degree Days 28    
Moisture  
Dew Point 25 °F    
Average Humidity 61    
Maximum Humidity 79    
Minimum Humidity 49    
Precipitation  
Precipitation 0.00 in - - ()
Sea Level Pressure  
Sea Level Pressure 30.19 in    
Wind  
Wind Speed 3 mph (NNE)    
Max Wind Speed 14 mph    
Max Gust Speed 21 mph    
Visibility 10 miles    
Events      
Averages and records for this station are not official NWS values.
T = Trace of Precipitation, MM = Missing Value Source: NWS Daily Summary

Daily Weather History Graph

Daily Weather History Graph

Search for Another Location

Airport or City:

Trip Planner

Search our weather history database for the weather conditions in past years. The results will help you decide how hot, cold, wet, or windy it might be!

Date:

Astronomy

Nov. 06, 2012 Rise Set
Actual Time 6:18 AM EST 4:28 PM EST
Civil Twilight 5:49 AM EST 4:57 PM EST
Nautical Twilight 5:16 AM EST 5:30 PM EST
Astronomical Twilight 4:43 AM EST 6:02 PM EST
Moon 11:04 PM EST (11/6) 12:08 PM EST (11/6)
Length of Visible Light 11h 07m
Length of Day
10h 09m
Waning Gibbous, 53% of the Moon is Illuminated
Nov 6
Waning Gibbous
Nov 6
Last Quarter
Nov 13
New
Nov 20
First Quarter
Nov 28
Full

Hourly Weather History & Observations

Time (EST) Temp. Windchill Dew Point Humidity Pressure Visibility Wind Dir Wind Speed Gust Speed Precip Events Conditions
12:52 AM 37.9 °F 32.7 °F 23.0 °F 55% 30.12 in 10.0 mi North 6.9 mph - N/A   Mostly Cloudy
1:52 AM 36.0 °F - 21.9 °F 57% 30.14 in 10.0 mi Calm Calm - N/A   Scattered Clouds
3:52 AM 34.0 °F - 25.0 °F 70% 30.14 in 10.0 mi Calm Calm - N/A   Mostly Cloudy
4:52 AM 32.0 °F - 25.0 °F 75% 30.15 in 10.0 mi Calm Calm - N/A   Mostly Cloudy
5:52 AM 32.0 °F - 26.1 °F 79% 30.16 in 10.0 mi Calm Calm - N/A   Overcast
6:52 AM 33.1 °F - 26.1 °F 75% 30.18 in 10.0 mi Calm Calm - N/A   Mostly Cloudy
7:52 AM 39.0 °F 34.8 °F 25.0 °F 57% 30.21 in 10.0 mi NW 5.8 mph - N/A   Clear
8:52 AM 41.0 °F 39.0 °F 23.0 °F 49% 30.22 in 10.0 mi Variable 3.5 mph - N/A   Clear
9:52 AM 42.1 °F 40.2 °F 24.1 °F 49% 30.23 in 10.0 mi NW 3.5 mph - N/A   Scattered Clouds
10:52 AM 41.0 °F - 24.1 °F 51% 30.22 in 10.0 mi Calm Calm - N/A   Scattered Clouds
11:52 AM 41.0 °F 39.0 °F 23.0 °F 49% 30.22 in 10.0 mi NE 3.5 mph - N/A   Mostly Cloudy
12:52 PM 42.1 °F - 24.1 °F 49% 30.21 in 10.0 mi Calm Calm - N/A   Mostly Cloudy
1:52 PM 42.1 °F 40.2 °F 24.1 °F 49% 30.20 in 10.0 mi Variable 3.5 mph - N/A   Clear
2:52 PM 41.0 °F 37.1 °F 24.1 °F 51% 30.20 in 10.0 mi NNE 5.8 mph - N/A   Clear
3:52 PM 39.0 °F 35.7 °F 24.1 °F 55% 30.20 in 10.0 mi North 4.6 mph - N/A   Clear
4:52 PM 37.0 °F - 24.1 °F 59% 30.21 in 10.0 mi Calm Calm - N/A   Clear
5:52 PM 35.1 °F - 24.1 °F 64% 30.21 in 10.0 mi Calm Calm - N/A   Clear
6:52 PM 32.0 °F 28.7 °F 24.1 °F 73% 30.22 in 10.0 mi NNW 3.5 mph - N/A   Clear
7:52 PM 32.0 °F 27.5 °F 25.0 °F 75% 30.22 in 10.0 mi North 4.6 mph - N/A   Clear
8:52 PM 37.0 °F 32.4 °F 28.9 °F 73% 30.20 in 10.0 mi NE 5.8 mph - N/A   Mostly Cloudy
9:52 PM 42.1 °F 36.1 °F 28.9 °F 60% 30.18 in 10.0 mi NE 10.4 mph 17.3 mph N/A   Mostly Cloudy
10:52 PM 43.0 °F 38.2 °F 30.0 °F 60% 30.16 in 10.0 mi ENE 8.1 mph - N/A   Overcast
11:52 PM 44.1 °F 37.4 °F 30.0 °F 58% 30.14 in 10.0 mi ENE 13.8 mph 20.7 mph N/A   Mostly Cloudy